Página principal
METAR-TAF:

METAR-TAF

Aeroportos :

Meeker Airport

Meeker, Colorado, Estados Unidos

latitude: 40-02-32N, longitude: 107-53-23W, altura: 1948 m

Observação actual do tempo

O boletim foi feito há 1 hora e 1 minutos, às 18:53 UTC
Vento 4 kt de sudoeste
Temperatura 6°C
Humidade 49%
Pressão 1029 hPa
Visibilidade: 16.1 km
Céu limpo

METAR: KEEO 251853Z AUTO 23004KT 10SM CLR 06/M04 A3038 RMK AO2 SLP281 T00611044

Hora: 13:54 (19:54 UTC)


TAF: em falta

Observações e previsões do tempo de mais de 4000 aeroportos (mensagens METAR e TAF).

As estações disponíveis são os pontos amarelos e vermelhos sobre o mapa.

Mova o rato sobre o mapa para ver o nome da estação.

Depois clique no ponto para visualizar as observações e previsões meteorológicas.

Para alterar o mapa : clique nos botões verdes com uma cruz preta para aumentar o zoom; no botão verde com uma pitada de zoom; ou nas setas verdes para mapas adjacentes.


METAR-TAF: